Regional Weather Roundup
Issued by NWS

Home | Current Version | Previous Version | Graphics & Text | Print | Product List | Glossary On
Versions: 1 2 3 4 5 6 7 8 9 10 11 12 13 14 15 16 17 18 19 20 21 22 23 24 25 26 27
000
ASUS45 KBOU 220207
RWRCO

WEATHER ROUNDUP FOR COLORADO
NATIONAL WEATHER SERVICE DENVER/BOULDER CO
800 PM MDT MON AUG 21 2017

NOTE: "FAIR" INDICATES FEW OR NO CLOUDS BELOW 12000 FEET WITH NO
SIGNIFICANT WEATHER AND/OR OBSTRUCTIONS TO VISIBILITY.

COZ001>005-013-030-031-220300-
...NORTHWEST COLORADO...

CITY           SKY/WX    TMP DP  RH WIND       PRES   REMARKS
CRAIG          FAIR      71  40  32 CALM      30.21R
HAYDEN         FAIR      77  30  17 N6        30.25S
MEEKER         FAIR      71  36  27 NE3       30.22R
RABBIT EARS PA FAIR      57  32  38 SE5       30.57S
STEAMBOAT SPGS FAIR      75  32  21 NE3       30.26S
WALDEN         FAIR      64  27  24 E5        30.39R
$$

COZ006>008-011-220300-
...WEST CENTRAL VALLEYS...

CITY           SKY/WX    TMP DP  RH WIND       PRES   REMARKS
GRAND JUNCTION FAIR      85  41  21 W5        30.08R
MONTROSE       MOCLDY    72  46  39 E20       30.23R
EAGLE          FAIR      76  39  26 NE7       30.25R
RIFLE          FAIR      82  37  20 VRB3      30.15R
DELTA          FAIR      83  41  22 S17       30.15R
NUCLA          FAIR      77  36  22 N5        30.22R
$$

COZ017>023-064>068-220300-
...SOUTHWEST COLORADO...

CITY           SKY/WX    TMP DP  RH WIND       PRES   REMARKS
DURANGO        MOCLDY    64  47  53 N17G23    30.29F
CORTEZ         LGT RAIN  64  58  80 W6        30.29R
PAGOSA SPRINGS MOCLDY    59  48  67 NE9       30.38R
TELLURIDE      FAIR      62  39  42 S5        30.48R
WOLF CREEK PAS DRIZZLE   39  39 100 N14G21    30.72R
$$

COZ009-010-012-014-032>034-037-058>063-220300-
...CENTRAL COLORADO...

CITY           SKY/WX    TMP DP  RH WIND       PRES   REMARKS
ASPEN          FAIR      68  40  35 SE12      30.35R
BUENA VISTA    MOCLDY    58  47  66 NE3       30.48R
COPPER MTN     MOCLDY    54  36  50 CALM      30.70R
BERTHOUD PASS  FAIR      43  36  75 SE20      30.73R
COTTONWOOD PAS MOCLDY    54  43  66 NE5       30.59R
GUNNISON       FAIR      65  44  46 SW3       30.42R
KREMMLING      FAIR      73  39  29 SW9       30.33R
LEADVILLE      FAIR      51  41  68 S14       30.55R
SALIDA         MOCLDY    58  53  82 SE7       30.52R
SUNLIGHT       FAIR      54  30  40 CALM      30.61S
WILKERSON PASS CLOUDY    46  37  71 W5        30.70R
$$

COZ069>075-220300-
...SAN LUIS VALLEY/SANGRE DE CRISTO MOUNTAINS...

CITY           SKY/WX    TMP DP  RH WIND       PRES   REMARKS
ALAMOSA        MOCLDY    63  44  50 N20       30.36R
DEL NORTE      LGT RAIN  54  50  87 W16       30.45F
LA VETA PASS   NOT AVBL
SAGUACHE         N/A     55  50  82 SW8       30.44R
$$

COZ035-036-038>040-220300-
...NORTHERN COLORADO FRONT RANGE...

CITY           SKY/WX    TMP DP  RH WIND       PRES   REMARKS
DENVER INTL AP MOCLDY    73  50  44 E12       30.22R
DMNS CITY PARK   N/A     75  45  34 E13G18    30.23R
AURORA         MOCLDY    71  51  48 E9        30.24R
FRONT RANGE AP FAIR      72  52  49 E8        30.24R
ERIE MUNI ARPT FAIR      77  46  33 E6        30.25R
BOULDER MUN AP FAIR      73  45  35 N3        30.21R
CENTENNIAL     MOCLDY    76  41  28 VRB5      30.25R
BROOMFIELD     FAIR      77  43  29 NE5       30.24R
FORT COLLINS   FAIR      74  51  44 E9        30.21R
LONGMONT       FAIR      76  50  40 CALM      30.22R
$$

COZ041-046-047-076>085-087-088-220300-
...PIKES PEAK/PALMER DIVIDE AND SOUTHERN FOOTHILLS...

CITY           SKY/WX    TMP DP  RH WIND       PRES   REMARKS
COLO. SPRINGS  MOCLDY    72  47  40 NE10G20   30.28R
A. F. ACADEMY  MOCLDY    69  42  37 N5        30.31R
SCHRIEVER AFB  FAIR      69  45  42 N10       30.29R
CHEYENNE MTN   CLOUDY    72  36  26 NW8       30.29R
ELLICOTT       FAIR     N/A N/A N/A E8        30.27R
FALCON         FAIR      67  45  46 N5        30.35R
FORT CARSON    MOCLDY    69  46  43 NW6       30.25R
LIMON          FAIR      69  54  58 NE6       30.22R
MONUMENT HILL  FAIR      64  45  48 NE5       30.36R
CANON CITY     PTCLDY    70  54  56 W15       30.25R
WALSENBURG     CLOUDY    61  55  82 N26G37    30.29R
TRINIDAD       FAIR      73  49  42 SE10      30.21R
$$

COZ042>045-048>051-090-091-220300-
...NORTHEAST COLORADO...

CITY           SKY/WX    TMP DP  RH WIND       PRES   REMARKS
GREELEY ARPT   FAIR      72  54  53 E8        30.19R
AKRON          FAIR      69  54  58 NE8       30.17R
BURLINGTON     FAIR      76  66  71 N12       30.11R
WRAY           NOT AVBL
YUMA           FAIR      70  52  52 N7        30.13R
STERLING       NOT AVBL
HOLYOKE        FAIR      73  61  64 NE9       30.11R
FORT MORGAN    FAIR      70  46  41 NE5       30.19R
$$

COZ086-089-092>099-220300-
...SOUTHEAST COLORADO...

CITY           SKY/WX    TMP DP  RH WIND       PRES   REMARKS
PUEBLO         CLOUDY    76  50  40 SW18G24   30.19R
LA JUNTA       FAIR      83  54  36 NE10      30.08R
LAMAR          FAIR      74  58  57 S5        30.02R
SPRINGFIELD      N/A     72  61  68 SW7       30.10R
$$




USA.gov is the U.S. government's official web portal to all federal, state and local government web resources and services.